• In Deutschland
  • Länderverzeichnis
  • Für 7 Tage
  • Wassertemperatur
  • Satellitenkarten
  • Wetterkarte
  • Widgets
  • user-avatar
    Anmelden

    Stündliche Wetter Sur

    Heute, 17 Januar, Mittwoch

    Zeit Temperatur Niederschläge Wind Luftdruck Luftfeuchtigkeit
    00:00 +13°C° 0 mm 2 m/S 764 mmHg 80%
    01:00 +13°C° 0 mm 2 m/S 764 mmHg 81%
    02:00 +12°C° 0 mm 2 m/S 763 mmHg 82%
    03:00 +11°C° 0,1 mm 3 m/S 763 mmHg 83%
    04:00 +11°C° 0,1 mm 3 m/S 763 mmHg 84%
    05:00 +11°C° 0,1 mm 3 m/S 763 mmHg 85%
    06:00 +12°C° 0,1 mm 3 m/S 762 mmHg 84%
    07:00 +12°C° 0,1 mm 3 m/S 762 mmHg 82%
    08:00 +12°C° 0,1 mm 3 m/S 762 mmHg 81%
    09:00 +13°C° 0,6 mm 3 m/S 762 mmHg 77%
    10:00 +14°C° 0,6 mm 3 m/S 762 mmHg 73%
    11:00 +15°C° 0,6 mm 4 m/S 762 mmHg 69%
    12:00 +14°C° 0,9 mm 4 m/S 762 mmHg 73%
    13:00 +14°C° 0,9 mm 4 m/S 761 mmHg 78%
    14:00 +14°C° 0,9 mm 4 m/S 761 mmHg 82%
    15:00 +13°C° 0,2 mm 3 m/S 761 mmHg 84%
    16:00 +13°C° 0,2 mm 3 m/S 761 mmHg 87%
    17:00 +13°C° 0,2 mm 3 m/S 761 mmHg 89%
    18:00 +13°C° 0,1 mm 3 m/S 761 mmHg 89%
    19:00 +13°C° 0,1 mm 2 m/S 761 mmHg 90%
    20:00 +13°C° 0,1 mm 2 m/S 761 mmHg 90%
    21:00 +12°C° 0,1 mm 3 m/S 761 mmHg 90%
    22:00 +12°C° 0,1 mm 3 m/S 761 mmHg 91%
    23:00 +12°C° 0,1 mm 4 m/S 761 mmHg 91%

    Morgen, 18 Januar, Donnerstag

    Zeit Temperatur Niederschläge Wind Luftdruck Luftfeuchtigkeit
    00:00 +12°C° 0,2 mm 4 m/S 761 mmHg 91%
    01:00 +12°C° 0,2 mm 4 m/S 761 mmHg 92%
    02:00 +12°C° 0,2 mm 4 m/S 761 mmHg 92%
    03:00 +12°C° 0,2 mm 5 m/S 761 mmHg 92%
    04:00 +12°C° 0,2 mm 5 m/S 760 mmHg 92%
    05:00 +12°C° 0,2 mm 5 m/S 760 mmHg 92%
    06:00 +13°C° 0,5 mm 6 m/S 760 mmHg 92%
    07:00 +13°C° 0,5 mm 6 m/S 759 mmHg 92%
    08:00 +12°C° 0,5 mm 7 m/S 759 mmHg 93%
    09:00 +12°C° 0,8 mm 8 m/S 759 mmHg 92%
    10:00 +13°C° 0,8 mm 9 m/S 759 mmHg 92%
    11:00 +13°C° 0,8 mm 10 m/S 758 mmHg 91%
    12:00 +13°C° 1,1 mm 11 m/S 758 mmHg 91%
    13:00 +13°C° 1,1 mm 11 m/S 757 mmHg 91%
    14:00 +14°C° 1,1 mm 12 m/S 756 mmHg 91%
    15:00 +13°C° 0,8 mm 12 m/S 755 mmHg 90%
    16:00 +13°C° 0,8 mm 12 m/S 755 mmHg 89%
    17:00 +13°C° 0,8 mm 12 m/S 754 mmHg 88%
    18:00 +13°C° 4,2 mm 13 m/S 754 mmHg 89%
    19:00 +13°C° 4,2 mm 13 m/S 753 mmHg 91%
    20:00 +13°C° 4,2 mm 14 m/S 753 mmHg 92%
    21:00 +11°C° 1,7 mm 15 m/S 753 mmHg 87%
    22:00 +11°C° 1,6 mm 16 m/S 753 mmHg 83%
    23:00 +10°C° 1,6 mm 17 m/S 753 mmHg 78%

    übermorgen, 19 Januar, Freitag

    Zeit Temperatur Niederschläge Wind Luftdruck Luftfeuchtigkeit
    00:00 +9°C° 1,1 mm 16 m/S 753 mmHg 80%
    01:00 +8°C° 1,1 mm 14 m/S 753 mmHg 82%
    02:00 +8°C° 1,1 mm 13 m/S 753 mmHg 84%
    03:00 +8°C° 1,4 mm 13 m/S 753 mmHg 82%
    04:00 +8°C° 1,4 mm 13 m/S 754 mmHg 80%
    05:00 +8°C° 1,4 mm 13 m/S 754 mmHg 78%
    06:00 +8°C° 0,6 mm 12 m/S 755 mmHg 77%
    07:00 +8°C° 0,6 mm 11 m/S 756 mmHg 75%
    08:00 +8°C° 0,6 mm 10 m/S 757 mmHg 74%
    09:00 +8°C° 0,2 mm 10 m/S 758 mmHg 71%
    10:00 +9°C° 0,2 mm 10 m/S 759 mmHg 67%
    11:00 +11°C° 0,2 mm 10 m/S 760 mmHg 64%
    12:00 +11°C° 0,1 mm 10 m/S 760 mmHg 65%
    13:00 +9°C° 0,1 mm 10 m/S 760 mmHg 66%
    14:00 +9°C° 0,1 mm 11 m/S 760 mmHg 67%
    15:00 +10°C° 0 mm 9 m/S 761 mmHg 69%
    16:00 +9°C° 0 mm 8 m/S 762 mmHg 70%
    17:00 +9°C° 0 mm 7 m/S 762 mmHg 71%
    18:00 +8°C° 0 mm 6 m/S 763 mmHg 72%
    19:00 +8°C° 0 mm 6 m/S 764 mmHg 72%
    20:00 +7°C° 0 mm 5 m/S 764 mmHg 72%
    21:00 +7°C° 0 mm 4 m/S 765 mmHg 73%
    22:00 +7°C° 0 mm 4 m/S 765 mmHg 73%
    23:00 +8°C° 0 mm 3 m/S 765 mmHg 73%

    20 Januar, Samstag

    Zeit Temperatur Niederschläge Wind Luftdruck Luftfeuchtigkeit
    00:00 +8°C° 0 mm 3 m/S 766 mmHg 73%
    01:00 +8°C° 0 mm 2 m/S 766 mmHg 73%
    02:00 +7°C° 0 mm 2 m/S 766 mmHg 73%
    03:00 +7°C° 0 mm 2 m/S 766 mmHg 72%
    04:00 +7°C° 0 mm 2 m/S 766 mmHg 70%
    05:00 +7°C° 0 mm 3 m/S 767 mmHg 68%
    06:00 +8°C° 0 mm 3 m/S 767 mmHg 65%
    07:00 +9°C° 0 mm 3 m/S 767 mmHg 62%
    08:00 +10°C° 0 mm 3 m/S 768 mmHg 60%
    09:00 +12°C° 0 mm 3 m/S 768 mmHg 59%
    10:00 +14°C° 0 mm 3 m/S 768 mmHg 58%
    11:00 +16°C° 0 mm 3 m/S 768 mmHg 57%
    12:00 +17°C° 0 mm 3 m/S 768 mmHg 58%
    13:00 +17°C° 0 mm 3 m/S 767 mmHg 60%
    14:00 +17°C° 0 mm 3 m/S 767 mmHg 61%
    15:00 +16°C° 0 mm 2 m/S 767 mmHg 67%
    16:00 +15°C° 0 mm 1 m/S 767 mmHg 73%
    17:00 +13°C° 0 mm 1 m/S 767 mmHg 80%
    18:00 +13°C° 0 mm 1 m/S 767 mmHg 79%
    19:00 +13°C° 0 mm 1 m/S 768 mmHg 79%
    20:00 +13°C° 0 mm 1 m/S 768 mmHg 79%
    21:00 +12°C° 0 mm 1 m/S 768 mmHg 77%
    22:00 +12°C° 0 mm 2 m/S 768 mmHg 76%
    23:00 +12°C° 0 mm 2 m/S 768 mmHg 74%

    21 Januar, Sonntag

    Zeit Temperatur Niederschläge Wind Luftdruck Luftfeuchtigkeit
    00:00 +11°C° 0 mm 3 m/S 767 mmHg 74%
    01:00 +11°C° 0 mm 3 m/S 767 mmHg 73%
    02:00 +11°C° 0 mm 4 m/S 767 mmHg 73%
    03:00 +11°C° 0 mm 4 m/S 766 mmHg 71%
    04:00 +10°C° 0 mm 5 m/S 766 mmHg 69%
    05:00 +10°C° 0 mm 6 m/S 766 mmHg 67%
    06:00 +10°C° 0 mm 6 m/S 765 mmHg 64%
    07:00 +11°C° 0 mm 7 m/S 765 mmHg 60%
    08:00 +11°C° 0 mm 7 m/S 765 mmHg 57%
    09:00 +14°C° 0 mm 7 m/S 765 mmHg 51%
    10:00 +16°C° 0 mm 8 m/S 764 mmHg 45%
    11:00 +18°C° 0 mm 8 m/S 764 mmHg 38%
    12:00 +18°C° 0 mm 7 m/S 763 mmHg 37%
    13:00 +20°C° 0 mm 7 m/S 762 mmHg 36%
    14:00 +20°C° 0 mm 6 m/S 762 mmHg 35%
    15:00 +19°C° 0 mm 6 m/S 762 mmHg 37%
    16:00 +16°C° 0 mm 6 m/S 761 mmHg 39%
    17:00 +15°C° 0 mm 5 m/S 761 mmHg 42%
    18:00 +14°C° 0 mm 6 m/S 761 mmHg 41%
    19:00 +14°C° 0 mm 6 m/S 761 mmHg 39%
    20:00 +14°C° 0 mm 6 m/S 761 mmHg 38%
    21:00 +13°C° 0 mm 6 m/S 760 mmHg 38%
    22:00 +13°C° 0 mm 6 m/S 760 mmHg 38%
    23:00 +13°C° 0 mm 6 m/S 760 mmHg 38%

    22 Januar, Montag

    Zeit Temperatur Niederschläge Wind Luftdruck Luftfeuchtigkeit
    00:00 +13°C° 0 mm 6 m/S 760 mmHg 37%
    01:00 +13°C° 0 mm 6 m/S 759 mmHg 37%
    02:00 +11°C° 0 mm 6 m/S 759 mmHg 37%
    03:00 +11°C° 0 mm 6 m/S 759 mmHg 36%
    04:00 +11°C° 0 mm 6 m/S 759 mmHg 35%
    05:00 +11°C° 0 mm 6 m/S 759 mmHg 34%
    06:00 +13°C° 0 mm 6 m/S 759 mmHg 37%
    07:00 +13°C° 0 mm 6 m/S 759 mmHg 40%
    08:00 +14°C° 0 mm 5 m/S 759 mmHg 43%
    09:00 +15°C° 0 mm 6 m/S 759 mmHg 46%
    10:00 +17°C° 0 mm 7 m/S 759 mmHg 48%
    11:00 +18°C° 0 mm 8 m/S 759 mmHg 50%
    12:00 +18°C° 0,1 mm 8 m/S 758 mmHg 54%
    13:00 +18°C° 0,1 mm 9 m/S 758 mmHg 57%
    14:00 +18°C° 0,1 mm 10 m/S 758 mmHg 60%
    15:00 +17°C° 0,3 mm 9 m/S 758 mmHg 66%
    16:00 +16°C° 0,3 mm 8 m/S 758 mmHg 71%
    17:00 +14°C° 0,3 mm 7 m/S 758 mmHg 77%
    18:00 +14°C° 1 mm 7 m/S 759 mmHg 81%
    19:00 +14°C° 1 mm 6 m/S 759 mmHg 85%
    20:00 +13°C° 1 mm 5 m/S 759 mmHg 90%
    21:00 +13°C° 0,6 mm 5 m/S 759 mmHg 90%
    22:00 +13°C° 0,6 mm 5 m/S 759 mmHg 91%
    23:00 +13°C° 0,6 mm 5 m/S 759 mmHg 91%
    Mehr zeigen